Regional Weather Roundup
Issued by NWS New Orleans/Baton Rouge, LA

Home | Current Version | Previous Version | Graphics & Text | Print | Product List | Glossary On
Versions: 1 2 3 4 5 6 7 8 9 10 11 12 13 14 15 16 17 18 19 20 21 22 23 24 25 26 27 28 29 30 31 32 33 34 35 36 37 38 39 40 41 42 43 44 45 46 47 48 49 50
040
ASUS44 KLIX 222010
RWRLIX
NEW ORLEANS REGIONAL WEATHER ROUNDUP
NATIONAL WEATHER SERVICE NEW ORLEANS LA
200 PM CST SAT NOV 22 2014

NOTE: "FAIR" INDICATES FEW OR NO CLOUDS BELOW 12,000 FEET WITH NO
      SIGNIFICANT WEATHER AND/OR OBSTRUCTIONS TO VISIBILITY.
      SKY/WX - SKY CONDITION AND SIGNIFICANT WEATHER.
      TMP - AIR TEMPERATURE.     DP    - DEWPOINT TEMPERATURE.
      RH  - RELATIVE HUMIDITY.   PRES  - PRESSURE.
      HI  - HEAT INDEX.          WCI   - WIND CHILL INDEX.

*  THESE STATIONS ARE NOT NWS OR FAA STATIONS AND ARE NOT UNDER
   NWS QUALITY CONTROL.

LAZ038-040-048-061>063-065>067-069-222100-
SOUTHEAST LOUISIANA

CITY           SKY/WX    TMP DP  RH WIND       PRES   REMARKS
N.O. AUDUBON     N/A     69  62  76 MISG        N/A
N.O. INTL ARPT CLOUDY    67  58  72 E9        30.07S
N.O. LAKEFRONT CLOUDY    65  58  78 E14       30.07S
N.O. DOWNTOWN*   N/A     66  55  68 CALM      30.07S
SLIDELL        CLOUDY    65  56  72 E8        30.07F
BATON ROUGE    CLOUDY    69  58  67 SE15G23   30.07F
BOOTHVILLE     CLOUDY    67  63  87 E10       30.06F
BELLE CHASSE   CLOUDY    68  59  73 E15G21    30.06S
BOGALUSA*        N/A     70  54  56 E5        30.10F
NEW ROADS*     CLOUDY    69  59  70 E8        30.07F
GONZALES*      MOCLDY    66  59  77 NE6       30.07F
HAMMOND*       CLOUDY    70  55  60 E12       30.10R
HOUMA*         NOT AVBL
PORT FOURCHON* CLEAR     70  64  83 E12G18    30.07R

$$

MSZ070-080>082-222100-
SOUTHERN MISSISSIPPI

CITY           SKY/WX    TMP DP  RH WIND       PRES   REMARKS
MCCOMB         CLOUDY    69  53  56 SE8       30.09F
GULFPORT       CLOUDY    65  56  72 E14G20    30.08F
BILOXI         CLOUDY    64  56  75 E12       30.08F
PASCAGOULA     CLOUDY    66  57  72 E14       30.10F
STENNIS ARPT*  SUNNY     63  52  67 E8G16     30.08F

$$

COASTAL OBSERVATIONS
LAKE AND NEARSHORE STATIONS

STATION/POSITION TIME  TEMP    WIND        PRES    WAVE
                       AIR SEA DIR/SP/G            HT/PER
                 (UTC) (F)     (DEG/KT/KT) (MB)    (FT/S)
PASCAGOULA       2000   64      70/ 17/ 23 1018.9
WAVELAND YACHT   2000   61     110/ 19/ 23 1017.5
GRAND ISLE       2000   67 61  100/  9/ 13 1017.7
SOUTHWEST PASS   2000   70 71              1017.3
NEW CANAL        2000   64 55   80/  7/ 16 1018.2
SHELL BEACH      2000   64 52  100/ 16/ 18 1017.5

OFFSHORE STATIONS

STATION/POSITION TIME  TEMP    WIND        PRES    WAVE
                       AIR SEA DIR/SP/G            HT/PER
                 (UTC) (F)     (DEG/KT/KT) (MB)    (FT/S)
64 S DAUPHIN ISL 1948   69 73   90/ 19/ 21 1019.0    6/ 8

$$




USA.gov is the U.S. government's official web portal to all federal, state and local government web resources and services.